This is the latest recevied weather packets stored in our database for station/object N9EA. If no packets are shown the sender has not sent any weather packets the latest 10 day(s).
| Time | Temp. | Humidity | Pressure | Rain* | Wind** | Luminosity | Snow |
|---|---|---|---|---|---|---|---|
| 1777849503 | 22.22° C | 42% | 1005.3 hPa | 0 mm | - | 158 W/m² | - |
| 1777849200 | 22.22° C | 42% | 1005.1 hPa | 0 mm | - | 170 W/m² | - |
| 1777848896 | 22.22° C | 41% | 1005.1 hPa | 0 mm | - | 183 W/m² | - |
| 1777848592 | 22.78° C | 41% | 1005 hPa | 0 mm | - | 197 W/m² | - |
| 1777848289 | 22.78° C | 41% | 1005.1 hPa | 0 mm | - | 209 W/m² | - |
| 1777847987 | 22.78° C | 40% | 1005.3 hPa | 0 mm | - | 218 W/m² | - |
| 1777847685 | 22.78° C | 41% | 1005.2 hPa | 0 mm | - | 230 W/m² | - |
| 1777847380 | 22.22° C | 41% | 1005.1 hPa | 0 mm | - | 242 W/m² | - |
| 1777847079 | 22.22° C | 42% | 1005 hPa | 0 mm | - | 90 W/m² | - |
| 1777846777 | 22.22° C | 42% | 1005.2 hPa | 0 mm | - | 98 W/m² | - |
| 1777846475 | 21.67° C | 43% | 1005.1 hPa | 0 mm | - | 68 W/m² | - |
| 1777846171 | 22.22° C | 42% | 1005 hPa | 0 mm | - | 74 W/m² | - |
| 1777845867 | 22.22° C | 41% | 1005.2 hPa | 0 mm | - | 68 W/m² | - |
| 1777845565 | 22.22° C | 40% | 1005.1 hPa | 0 mm | - | 76 W/m² | - |
| 1777845262 | 22.22° C | 40% | 1005 hPa | 0 mm | - | 91 W/m² | - |
| 1777844959 | 22.22° C | 41% | 1005.2 hPa | 0 mm | - | 74 W/m² | - |
| 1777844656 | 22.22° C | 40% | 1005.3 hPa | 0 mm | - | 121 W/m² | - |
| 1777844354 | 22.22° C | 40% | 1005.3 hPa | 0 mm | - | 240 W/m² | - |
| 1777844052 | 22.78° C | 40% | 1005.4 hPa | 0 mm | - | 403 W/m² | - |
| 1777843748 | 22.78° C | 40% | 1005.3 hPa | 0 mm | - | 421 W/m² | - |
| 1777843446 | 22.78° C | 40% | 1005.3 hPa | 0 mm | - | 372 W/m² | - |
| 1777843143 | 22.78° C | 38% | 1005.4 hPa | 0 mm | - | 440 W/m² | - |
| 1777842839 | 22.78° C | 40% | 1005.4 hPa | 0 mm | - | 436 W/m² | - |
| 1777842534 | 22.78° C | 38% | 1005.7 hPa | 0 mm | - | 469 W/m² | - |
| 1777842232 | 22.78° C | 38% | 1005.6 hPa | 0 mm | - | 481 W/m² | - |
* Rain latest hour (hover to see other rain measurements)
** Current wind speed in m/s (hover to see current wind gust speed)